Location: Unspecified
(0.0000°N, 0.0000°E)
Time: 16:39:32
(UTC+02:00)

Cosmos 1300 - Visible Passes

Search period start: 24 October 2014 00:00
Search period end: 02 November 2014 23:00
Orbit: 528 x 531 km, 82.5° (Epoch: 23 October)

Date Brightness Start Highest point End Pass type
(mag) Time Alt. Az. Time Alt. Az. Time Alt. Az.
24 Oct 4.1 20:27:56 10° SSW 20:31:38 43° W 20:35:20 10° NNW visible
25 Oct 3.9 20:17:19 10° SSW 20:21:05 48° W 20:24:50 10° N visible
26 Oct 3.7 19:06:42 10° SSW 19:10:30 54° W 19:14:18 10° N visible
01 Nov 2.9 06:08:09 10° N 06:12:01 81° E 06:15:56 10° S visible
02 Nov 3.0 05:57:29 10° N 06:01:21 72° E 06:05:15 10° S visible
